Wind_Speed
17 4 4 10 14 14 15 17 20 20 20 20 21 24 20 10 10 18 9 13 21 20 11 12 13 11 10 8 11 16 18 18 21 21 20 19 18 19 21 21 21 20 22 25 22 18 18 19 18 16 15 15 15 17 17 18 20 21 21 21 22 23 24 24 24 25 26 27 27 28 28 29 29 28 27 26 26 27 27 27 28 30 32 33 36 39 41
18 11 7 9 11 9 10 16 19 19 22 25 26 27 24 18 20 22 9 12 23 17 11 15 17 17 16 11 14 19 19 21 24 23 23 25 25 26 25 25 25 25 26 25 20 18 19 19 18 15 14 14 14 15 16 17 18 18 19 21 21 22 23 23 23 24 25 26 26 27 27 28 29 29 28 27 27 28 28 27 27 28 30 31 32 34 37
14 14 10 9 10 10 9 11 14 17 21 24 26 25 20 17 23 24 14 17 24 13 8 11 14 18 20 14 14 18 23 26 26 25 28 30 30 29 28 28 29 30 30 25 20 20 20 19 17 15 13 13 13 13 13 14 15 16 18 20 20 21 21 21 23 24 25 25 26 27 27 27 28 28 28 27 28 28 28 27 27 27 29 31 31 31 34
11 11 10 10 8 6 7 10 15 19 20 20 21 19 16 17 21 19 12 17 23 11 6 8 11 13 16 13 11 16 26 30 26 25 30 31 31 31 30 32 34 34 30 24 22 21 20 19 17 15 13 12 11 11 11 12 13 14 17 18 18 20 20 21 22 23 24 26 26 26 27 27 27 27 27 27 28 29 29 28 28 28 29 31 31 30 31
11 9 9 9 6 3 7 14 18 20 20 20 18 14 16 19 18 13 12 19 20 6 6 11 13 14 16 16 16 21 28 30 27 28 32 33 33 33 34 37 37 33 27 24 23 22 19 19 18 15 14 13 11 10 10 10 12 13 15 16 17 19 19 20 22 22 23 25 26 26 26 26 26 26 26 27 28 28 29 29 29 29 30 31 32 30 30
10 7 7 7 5 8 11 11 13 19 22 21 17 16 18 19 17 16 18 20 17 7 8 13 15 15 20 24 27 30 30 31 32 34 36 36 34 34 37 39 34 30 27 25 24 22 19 19 19 16 15 13 10 10 10 11 11 12 13 15 16 18 19 20 20 21 22 24 24 25 25 25 26 27 26 27 28 28 29 29 30 30 31 32 32 30 29
6 3 6 6 8 11 11 5 6 15 20 19 19 22 23 21 21 23 24 25 21 14 14 17 18 20 26 30 31 29 30 34 39 39 36 33 33 36 39 37 32 28 27 25 26 24 20 19 20 18 16 13 11 11 11 11 12 12 13 14 15 17 19 19 20 20 21 23 23 24 24 25 26 27 26 27 27 27 29 30 31 32 32 32 31 30 29
3 2 6 9 6 4 6 5 3 8 11 14 17 21 22 21 21 22 25 28 25 20 19 23 28 31 30 30 29 27 30 35 40 40 36 34 37 41 40 37 32 29 28 27 27 26 21 21 22 20 15 13 11 11 11 11 13 13 13 13 14 15 17 18 19 20 21 22 23 23 24 26 26 26 26 26 26 28 30 32 32 33 32 31 31 31 30
6 6 9 8 6 7 8 9 6 6 7 11 13 13 17 19 21 21 24 26 25 22 21 26 34 31 22 19 24 30 36 39 40 40 41 42 43 42 40 38 35 32 31 28 28 27 24 24 24 21 16 15 13 11 11 12 13 14 14 13 13 14 15 17 18 19 20 22 23 23 24 25 25 25 24 25 26 28 29 30 30 31 31 31 31 31 29
7 8 9 6 6 10 14 12 7 7 9 12 12 10 13 14 18 21 24 25 25 22 20 24 24 19 13 12 17 27 35 38 39 41 45 48 46 43 43 41 37 35 34 30 29 29 27 25 25 21 17 16 13 12 11 11 13 14 14 14 14 14 15 15 16 18 20 22 23 23 24 24 25 25 25 26 28 28 29 30 30 30 30 30 31 29 28
7 8 9 8 8 10 12 9 7 12 14 12 10 5 11 9 17 21 24 26 24 19 19 20 12 8 11 12 16 26 31 28 30 36 40 43 44 43 44 42 39 37 35 32 31 30 27 27 25 21 19 17 15 13 12 11 13 14 14 14 14 14 14 14 15 17 19 21 22 23 23 24 24 24 25 26 27 28 29 30 29 28 27 28 29 28 28
10 10 9 7 6 7 8 7 7 14 19 16 11 6 10 7 14 17 17 18 20 17 16 13 8 8 13 15 19 24 21 16 18 22 25 30 32 34 35 37 37 35 33 31 30 29 28 27 24 21 19 17 17 15 13 13 14 13 12 14 15 14 14 14 15 16 17 19 21 21 21 21 21 20 21 23 24 25 26 26 26 27 28 28 27 26 27
13 12 10 7 5 6 7 6 6 14 17 12 10 12 8 5 8 12 14 15 21 22 16 10 10 17 26 30 31 24 14 12 14 14 16 21 22 22 24 26 28 29 28 27 27 27 27 24 21 21 19 19 19 17 16 17 15 12 12 15 16 15 14 15 15 16 17 18 19 20 20 19 19 19 21 22 23 24 24 24 25 26 26 25 24 24 25
11 11 10 8 6 6 9 8 12 18 14 9 11 8 5 6 9 13 17 19 21 23 20 18 21 28 34 37 38 31 24 24 23 18 18 19 18 18 16 16 20 23 23 24 26 25 23 21 21 21 21 22 22 20 21 21 15 11 14 17 17 16 16 16 16 16 16 17 18 18 20 21 22 22 24 25 25 24 23 22 22 21 22 24 25 24 25
9 9 9 9 8 9 15 13 8 12 12 7 6 5 2 6 9 11 15 17 18 19 21 24 28 29 29 29 30 30 30 29 26 23 21 17 15 17 18 20 21 22 22 23 23 21 20 20 21 22 23 25 25 25 26 23 16 13 16 18 17 17 17 17 17 18 17 16 17 18 19 22 24 25 26 27 26 24 23 21 20 20 21 24 24 25 26
8 8 9 8 6 8 22 19 9 16 18 7 4 7 7 1 1 7 12 14 16 17 18 20 23 23 23 23 23 23 23 20 19 20 18 14 14 18 21 23 22 19 18 18 18 19 21 22 23 25 27 28 28 29 29 23 17 17 18 18 18 19 18 18 18 18 18 16 16 18 19 21 24 25 26 27 27 26 25 22 20 21 22 23 24 26 28
10 9 8 6 2 9 26 29 22 25 31 23 10 8 9 7 8 10 12 13 14 15 16 15 14 13 14 15 15 15 13 11 11 12 11 12 18 20 20 19 17 15 15 15 17 20 22 23 25 26 27 28 30 30 27 21 19 20 19 19 20 20 19 19 18 18 19 17 16 18 19 21 23 25 26 27 28 28 27 25 23 23 24 25 26 27 29
9 8 4 5 4 10 25 36 33 26 31 36 28 18 13 13 14 11 11 12 12 11 12 12 9 8 8 8 9 9 8 7 7 9 13 18 21 20 17 14 12 12 13 14 17 19 20 22 23 24 25 28 29 27 22 19 20 21 20 20 21 21 20 20 19 19 20 18 16 18 20 22 23 24 27 29 29 29 29 28 27 27 26 26 27 29 30
9 8 6 9 12 13 19 31 33 25 23 31 35 33 29 25 19 13 11 12 11 11 11 11 8 6 5 6 7 8 9 10 13 17 19 20 20 20 17 13 10 9 10 13 16 17 18 19 20 22 24 26 25 22 19 18 20 21 21 22 23 23 22 21 20 20 21 20 17 17 20 23 24 24 27 29 30 32 33 33 31 30 29 29 29 30 31
10 9 11 15 17 17 20 27 29 26 25 28 32 38 42 37 29 22 16 12 12 13 14 13 10 8 7 6 6 8 11 14 18 21 22 21 21 21 19 16 12 10 12 15 16 18 19 18 18 20 22 23 20 18 17 18 19 20 21 23 23 23 23 22 21 21 21 21 19 18 19 22 24 25 26 28 31 33 34 34 33 32 32 32 31 31 31
11 9 8 9 8 11 19 27 30 32 33 32 32 36 38 37 36 33 25 17 15 15 16 15 13 10 9 9 8 9 11 13 15 18 19 18 19 20 21 22 21 18 17 19 19 19 19 18 18 20 21 20 18 16 17 18 19 20 21 22 22 22 23 23 23 22 22 22 21 19 19 21 23 25 26 27 29 32 33 32 32 32 33 33 33 32 31
11 9 9 9 8 9 16 26 35 41 38 33 32 32 31 32 36 38 33 28 25 23 22 21 20 19 18 16 15 15 16 16 17 18 19 20 22 22 22 25 27 24 22 23 23 21 19 19 19 20 20 19 18 17 18 19 20 21 21 21 22 23 23 24 24 23 23 23 23 21 19 19 21 24 26 27 28 30 30 31 31 32 32 33 32 30 30
8 11 18 20 14 9 15 26 36 40 37 32 31 31 31 32 35 35 34 32 31 31 31 29 29 28 27 25 24 24 24 23 23 24 24 26 26 25 25 27 28 25 23 24 25 23 20 19 19 20 19 19 18 19 20 21 22 23 23 23 24 24 24 24 24 24 24 24 24 23 21 20 20 22 25 27 28 29 29 29 30 31 31 31 29 28 28
10 15 25 28 20 17 26 35 34 31 29 30 33 36 37 37 36 35 35 36 37 38 36 31 29 29 30 30 30 30 28 27 27 26 26 26 26 25 24 24 24 23 22 23 24 22 19 17 18 19 19 19 19 20 21 22 23 24 25 26 27 26 26 25 24 24 24 24 24 25 23 22 21 21 23 26 28 29 29 28 28 28 28 29 29 29 28
17 23 28 25 20 26 38 39 29 22 21 23 29 34 37 39 41 41 38 38 41 42 40 36 34 33 32 32 31 30 29 27 25 24 24 23 22 20 20 19 20 20 20 21 21 19 17 17 18 19 19 19 19 20 21 23 24 26 27 28 28 27 27 26 25 25 25 25 25 26 25 24 23 22 22 24 26 28 28 28 28 28 28 29 30 31 31
25 31 34 28 18 23 33 29 22 22 23 21 24 28 30 33 37 39 39 40 42 43 42 41 39 37 34 32 30 28 27 24 21 20 20 19 17 16 17 17 17 17 16 17 18 18 17 17 18 20 20 20 19 19 21 22 24 26 27 27 27 27 27 26 25 25 25 25 25 25 26 25 25 23 23 23 24 25 26 27 29 30 31 32 33 34 34
25 29 30 20 13 16 25 26 26 31 30 26 26 29 30 30 31 31 33 37 39 40 40 39 37 34 33 31 28 26 25 21 19 18 17 16 15 15 16 15 14 14 14 16 18 19 18 18 19 20 19 18 17 18 20 21 23 25 26 26 26 26 26 26 26 26 25 25 25 25 26 26 25 25 25 24 23 24 25 26 28 31 33 34 35 36 36
26 26 22 14 10 16 23 28 29 29 28 28 30 32 31 30 30 29 30 31 32 33 33 32 31 29 28 27 25 24 23 21 19 17 16 15 15 15 15 14 13 14 16 18 20 20 19 18 18 17 16 15 16 17 19 21 22 24 25 25 26 26 26 27 27 26 26 26 26 26 26 26 25 26 26 25 25 25 25 26 27 29 31 33 34 35 36
21 20 17 15 15 18 23 27 27 23 21 26 30 30 29 28 29 29 30 29 29 30 30 28 27 26 26 25 24 23 21 20 18 17 15 15 14 14 14 14 14 16 18 19 19 19 18 16 15 14 14 14 15 16 18 20 22 23 24 25 25 26 26 26 26 26 26 27 27 28 27 27 27 27 27 27 27 26 27 27 27 27 28 30 31 33 35
19 21 21 21 19 18 19 24 26 23 21 23 26 28 28 28 29 30 30 29 29 30 29 26 25 24 25 25 24 22 21 19 18 17 15 14 14 14 14 15 16 17 18 18 18 17 16 15 15 14 13 13 14 16 18 20 21 23 24 24 25 25 25 24 24 25 26 26 28 29 29 29 29 29 29 29 29 29 29 29 28 28 29 29 29 31 33
25 27 25 21 18 15 14 16 21 22 22 23 24 24 25 25 27 29 29 28 28 28 27 26 25 24 24 24 22 21 20 20 19 17 15 14 14 15 15 16 17 17 17 16 16 17 16 16 15 13 12 13 15 16 17 19 21 22 23 24 25 24 24 23 23 24 25 25 27 28 30 31 31 32 32 31 31 31 31 31 30 31 30 30 30 29 29
24 25 21 16 14 11 8 6 9 12 13 14 16 17 17 19 22 24 23 22 23 24 24 24 25 25 24 23 22 21 21 20 19 18 16 16 16 17 18 18 18 17 16 16 16 17 17 16 14 12 12 14 15 16 17 19 21 22 22 23 23 23 23 22 23 24 24 25 26 28 30 31 32 33 33 32 32 33 33 33 33 33 33 32 31 28 27
16 13 11 13 15 13 11 10 9 8 6 5 7 9 11 13 15 17 17 17 18 19 20 21 22 23 23 23 22 22 22 20 19 19 18 17 17 18 19 19 18 18 18 17 16 15 15 15 15 14 15 16 18 18 18 19 20 22 22 22 22 23 23 22 23 23 24 25 27 28 29 31 32 33 34 33 33 34 34 35 35 35 35 35 33 30 28
9 5 5 9 10 9 11 13 12 9 6 4 4 5 6 8 9 10 12 14 15 16 17 18 19 20 21 22 22 23 22 21 20 19 18 17 17 18 18 18 18 18 17 16 16 15 14 14 15 15 16 18 19 18 17 17 19 22 23 22 22 23 23 23 23 24 25 27 28 28 29 31 32 33 33 34 34 35 35 35 34 35 36 36 35 33 31
6 5 5 5 4 4 5 8 8 8 7 5 3 3 3 5 6 7 8 10 12 14 15 16 16 16 17 18 19 20 20 20 19 18 17 17 17 18 17 16 16 16 15 15 14 14 14 14 14 16 17 18 19 18 17 16 17 20 21 22 22 22 23 23 23 24 25 26 26 27 29 30 31 31 32 33 34 35 35 35 35 35 36 36 35 35 34
5 5 5 5 5 4 4 3 4 5 5 4 3 2 2 3 5 6 6 7 9 11 12 13 13 13 14 14 15 16 18 18 19 18 18 17 17 17 16 14 13 12 12 12 12 13 14 15 16 17 19 20 20 20 18 18 18 19 21 21 21 21 21 22 23 24 25 25 26 27 28 28 29 30 31 32 34 35 36 36 36 35 35 35 35 36 36
3 3 4 4 4 4 4 3 3 3 2 2 3 2 1 2 3 4 4 5 6 7 8 9 11 12 12 13 14 15 15 16 17 17 17 17 17 15 12 10 10 10 10 10 11 12 14 15 16 17 18 19 19 19 18 19 20 21 21 21 21 20 20 21 22 23 24 25 25 26 26 27 28 29 30 31 32 34 35 36 36 36 36 36 36 36 36
3 2 2 2 1 2 2 3 3 3 3 4 4 3 2 2 2 3 3 4 4 6 7 8 10 11 12 13 14 14 14 14 15 15 15 15 14 10 8 8 9 9 7 6 7 10 12 13 14 15 15 15 15 16 16 17 17 18 19 20 21 21 20 21 21 22 23 24 24 25 26 27 28 29 29 30 31 32 33 34 35 35 36 36 36 37 37
4 3 2 2 1 1 1 1 2 3 4 4 5 5 5 4 3 2 3 3 3 5 6 8 9 9 10 12 13 13 13 14 13 12 12 12 9 7 7 9 8 6 5 4 5 7 8 9 10 12 13 14 15 15 16 16 16 15 16 17 18 19 20 20 21 22 22 23 24 24 25 26 27 28 29 29 30 30 31 32 32 33 34 35 36 37 38
3 2 2 2 2 2 2 2 3 2 2 3 4 5 5 6 5 4 3 3 3 4 5 7 8 8 8 8 9 10 10 10 10 9 10 9 9 10 10 10 8 6 7 7 6 7 7 7 9 10 11 13 15 15 15 15 14 13 13 14 15 17 18 19 19 21 22 22 23 24 24 25 26 27 27 28 29 29 30 30 31 32 33 34 35 36 37
4 3 3 3 3 3 3 3 3 3 3 2 1 2 3 3 4 5 5 3 2 2 3 4 5 6 5 5 6 6 5 6 6 6 8 9 11 12 12 9 6 6 7 7 6 7 7 7 9 12 12 12 13 13 13 13 12 11 10 10 12 14 16 18 19 20 21 21 23 23 23 24 24 25 25 27 27 28 29 29 30 31 32 33 34 35 36
5 4 4 5 6 5 5 4 3 3 3 3 2 2 1 1 1 1 2 3 3 3 3 2 2 2 2 3 3 3 3 3 4 4 6 8 9 10 9 7 4 5 6 6 6 6 6 8 12 14 14 14 14 13 12 12 13 13 11 11 12 13 16 18 20 21 22 22 22 23 22 22 23 23 24 25 26 26 27 28 29 30 31 32 33 34 35
5 5 6 7 7 6 6 5 4 3 4 5 4 4 3 3 3 3 2 1 1 2 2 1 1 1 1 2 2 2 2 3 4 5 6 6 6 6 6 5 5 7 8 8 7 6 7 10 14 16 16 15 16 15 14 15 16 16 15 15 14 14 16 17 19 21 22 23 23 23 23 22 22 22 22 23 24 25 25 27 28 29 30 31 32 33 34
5 6 7 8 7 8 8 8 7 6 7 7 7 6 5 4 5 5 5 4 3 2 2 2 2 2 2 2 2 2 1 2 3 5 5 5 5 5 5 6 8 10 10 10 9 9 10 13 16 17 17 18 19 19 18 18 18 18 18 17 16 15 16 17 17 19 20 22 23 24 23 23 22 22 22 22 23 23 23 24 26 26 27 29 30 32 33
6 7 7 7 7 9 11 11 10 9 9 10 10 9 8 8 8 8 7 7 7 7 7 6 6 6 6 5 5 4 3 3 3 2 1 1 2 3 4 6 8 10 11 10 10 11 13 15 17 17 18 20 21 20 20 19 19 18 18 18 17 16 16 16 15 15 16 18 20 22 23 23 23 22 22 22 22 22 22 23 23 24 25 27 29 30 31
7 8 8 7 8 10 11 11 10 10 10 11 12 13 12 11 11 11 10 10 10 10 10 9 9 9 9 9 7 6 5 4 4 4 4 4 5 5 5 6 7 8 9 9 10 11 13 15 15 15 17 19 19 19 19 19 19 18 18 18 17 17 17 15 13 12 12 14 15 17 20 21 23 23 23 23 22 22 22 22 22 23 24 25 26 28 29
8 9 9 8 8 9 11 11 11 11 12 13 14 15 14 14 14 13 12 11 11 11 11 11 11 11 11 10 10 9 7 6 5 5 6 5 5 6 7 6 6 7 8 8 9 10 12 14 14 15 16 17 17 17 18 18 17 17 17 17 17 17 17 16 15 14 13 12 12 13 15 17 19 21 22 23 23 23 23 22 22 22 23 24 25 26 27
8 9 10 9 8 10 11 12 13 14 15 15 14 14 14 14 14 14 13 12 11 10 10 11 11 12 12 11 11 11 11 9 7 6 6 6 6 7 8 8 8 8 8 8 8 8 10 11 13 14 15 16 16 16 16 16 15 15 15 15 16 16 16 16 17 17 17 15 13 12 12 14 16 17 18 19 20 21 22 23 23 23 22 22 23 24 25
9 10 10 10 9 11 12 13 14 15 15 14 13 12 12 12 12 12 12 12 11 10 10 11 11 12 12 11 11 11 10 9 7 6 7 7 7 8 9 10 10 10 10 9 9 9 9 10 11 12 13 14 14 14 14 14 13 13 13 13 14 15 15 15 16 17 18 17 16 14 13 12 13 14 15 16 17 17 18 20 21 22 22 23 23 23 23
9 10 10 11 11 12 13 13 14 14 13 12 12 12 11 11 10 10 11 11 11 10 9 9 10 11 11 11 10 10 9 8 7 7 7 7 7 8 9 10 11 11 11 11 11 11 11 11 12 12 12 12 12 13 13 13 13 13 13 13 13 13 13 14 15 15 16 17 17 16 15 14 12 12 13 14 15 15 16 17 17 18 19 21 22 23 24
9 10 10 10 11 11 12 12 12 12 11 11 11 11 11 11 11 11 11 11 11 11 10 9 10 11 11 11 10 10 9 9 9 9 8 8 8 9 9 10 11 11 11 11 12 12 13 14 14 14 14 14 13 13 13 13 12 12 13 13 13 13 12 12 13 13 14 15 17 18 18 18 16 14 13 12 12 13 14 16 17 17 18 18 19 20 21
8 9 9 9 9 9 11 11 11 11 10 10 10 10 10 10 9 9 9 10 10 11 11 10 10 11 12 12 11 11 11 11 11 11 11 11 11 10 11 11 11 12 12 12 12 13 14 15 15 16 16 16 16 16 16 15 14 13 12 13 13 13 13 12 12 12 13 15 17 18 19 19 18 17 16 15 13 13 13 13 15 16 17 18 19 19 19
Wind_Direction
238 216 153 179 174 183 196 191 191 193 191 193 203 219 221 173 201 245 203 171 232 241 211 215 223 217 221 208 208 221 221 219 217 220 237 252 247 239 238 244 251 259 275 288 284 267 258 260 259 257 262 268 273 276 279 278 275 274 272 271 270 269 268 267 267 265 264 262 260 259 259 259 260 261 262 262 263 262 260 257 255 254 254 252 247 244 244
244 232 194 194 191 186 194 196 193 188 191 199 207 219 221 208 225 243 219 215 245 241 208 220 225 229 237 223 216 226 227 227 230 236 247 254 252 248 249 254 256 262 276 283 271 258 257 256 253 254 258 266 274 276 278 278 274 271 270 268 268 268 268 268 267 264 262 260 259 257 255 254 255 257 259 261 263 264 263 261 258 256 258 257 253 249 246
251 237 215 205 199 197 201 199 198 197 198 204 212 219 218 213 233 242 241 257 261 244 195 217 228 236 243 237 224 231 237 237 237 242 250 253 253 253 255 256 259 268 277 274 259 253 255 252 249 249 252 259 268 274 278 278 274 271 269 267 267 267 266 265 263 261 259 257 256 255 254 253 253 253 256 259 261 263 264 263 260 258 259 260 257 252 248
247 229 204 200 201 209 221 215 208 205 205 211 216 219 212 209 226 237 237 252 257 242 180 214 229 231 238 236 219 228 240 242 238 239 245 249 250 253 255 258 266 274 273 263 253 250 252 250 242 238 244 251 259 270 280 283 280 276 273 271 270 268 266 264 261 258 256 254 253 253 252 252 252 252 254 257 260 262 263 262 261 259 260 261 260 256 250
242 225 183 175 166 182 235 232 218 207 210 216 217 221 219 214 217 221 222 237 247 232 167 218 232 229 234 235 224 226 237 242 242 241 243 247 249 252 258 264 269 271 263 254 249 246 249 248 236 230 239 244 253 268 278 286 290 288 283 277 272 268 266 265 262 259 256 253 252 251 251 251 252 252 253 255 257 259 261 261 261 259 258 259 260 258 252
240 223 159 151 178 212 233 235 209 206 215 216 215 224 223 215 216 225 233 243 248 227 201 227 234 229 234 239 235 232 236 242 247 247 246 247 249 253 259 263 264 261 254 251 245 241 249 246 230 227 235 237 249 264 271 284 292 295 293 285 276 271 267 265 264 260 257 254 253 252 252 252 252 252 252 254 256 258 260 260 259 257 256 257 258 259 253
237 185 145 184 221 221 232 252 193 204 215 210 214 229 227 217 218 229 241 250 249 239 236 243 245 242 244 247 245 238 235 239 245 247 248 246 248 253 255 256 257 252 246 246 239 236 248 247 228 224 230 233 247 259 267 279 284 291 298 293 286 278 270 267 265 261 258 255 253 253 252 252 253 252 252 254 256 257 258 258 257 258 256 253 255 259 255
207 151 184 215 244 236 238 265 229 206 209 200 211 234 236 224 220 227 237 245 246 243 246 249 250 252 256 258 255 245 239 242 244 246 249 248 249 252 253 252 254 249 243 244 238 235 251 249 228 221 226 232 245 258 266 276 278 284 292 296 296 287 275 269 264 260 258 256 252 251 250 251 252 251 251 253 255 256 257 254 253 252 248 247 255 261 255
205 216 218 230 290 295 258 245 220 184 183 185 195 231 242 224 216 224 234 242 245 242 243 248 250 255 266 270 260 249 245 246 247 248 252 254 253 253 254 256 255 250 248 248 239 240 254 246 224 217 225 232 242 254 262 272 276 279 285 294 300 295 283 273 264 258 257 255 252 250 249 249 250 250 250 252 253 253 251 249 250 250 246 249 261 264 253
201 214 232 233 241 252 247 237 202 165 179 180 174 219 250 220 204 218 230 237 241 238 239 245 246 250 263 267 259 253 249 248 249 250 254 256 255 254 255 256 253 248 249 247 241 245 249 233 217 215 223 230 239 248 257 267 274 278 283 291 298 299 294 281 267 258 254 252 250 248 246 246 247 247 248 250 251 250 250 253 255 252 248 253 262 261 250
197 204 228 222 216 242 245 226 175 169 183 167 140 222 263 207 187 208 221 228 234 234 236 237 224 218 244 253 260 260 256 252 250 252 255 257 256 254 252 252 250 248 247 244 242 244 235 217 211 215 221 230 238 245 254 264 272 279 285 288 291 296 298 290 275 264 256 251 248 243 241 242 241 241 245 247 249 250 251 252 250 248 250 256 259 257 248
205 208 224 219 226 248 226 201 186 179 171 149 136 226 256 206 188 202 207 220 232 232 231 225 191 195 227 242 256 262 264 263 257 258 261 259 256 253 250 248 247 247 245 242 239 232 218 210 211 216 223 233 241 247 256 262 271 283 286 283 285 290 295 294 284 271 259 253 248 242 239 238 234 234 240 244 246 247 246 246 248 254 259 258 254 251 246
212 213 222 226 236 233 204 193 176 156 147 150 187 216 221 192 200 198 187 206 227 227 219 199 193 220 230 239 251 259 263 265 264 270 273 263 255 251 247 242 239 237 236 234 226 216 210 210 213 219 228 239 246 251 256 260 271 285 281 277 281 286 292 295 290 279 264 252 247 242 238 236 235 237 240 242 243 244 244 249 256 259 256 250 249 248 244
212 213 221 230 237 209 178 165 156 152 157 202 217 197 140 144 180 192 193 207 221 221 213 202 213 230 235 240 250 255 256 260 265 272 278 267 248 232 222 217 219 218 215 212 208 207 209 212 218 226 236 245 250 253 255 259 269 280 275 276 280 281 287 292 293 289 274 255 244 238 232 229 230 236 241 243 244 243 244 250 256 254 250 249 247 243 240
209 218 213 217 235 198 157 142 151 177 193 209 184 167 116 118 151 183 201 215 222 220 216 214 220 233 240 242 249 253 257 263 265 266 273 267 236 210 190 183 188 192 194 198 202 209 215 220 227 236 242 248 252 254 258 262 266 268 270 275 277 278 282 286 291 293 283 263 246 236 229 225 225 229 236 242 243 242 241 243 247 248 250 250 246 240 239
201 216 206 205 243 186 157 156 192 212 206 194 134 197 227 245 185 213 215 225 233 229 226 225 226 235 243 247 251 256 262 267 264 263 266 250 210 187 174 171 173 178 188 200 210 219 225 230 236 241 246 250 253 256 260 262 258 259 265 271 273 275 278 280 286 292 288 272 250 237 231 228 225 227 233 239 241 241 239 237 237 242 247 246 241 240 241
200 215 211 191 204 174 175 190 215 214 207 211 225 236 240 253 258 241 224 233 246 242 235 232 231 238 247 251 254 255 255 258 260 260 244 201 178 167 161 161 167 180 196 208 215 223 229 233 238 243 247 251 253 257 262 260 254 255 261 265 268 272 275 277 282 287 287 278 256 241 236 232 229 228 231 237 242 242 239 234 230 233 240 242 239 240 242
203 221 202 150 180 198 198 210 222 220 211 215 225 241 247 235 231 227 220 229 242 241 232 224 220 232 245 244 238 232 229 230 226 208 186 172 167 164 162 167 179 194 208 217 221 226 231 234 240 245 248 251 255 260 263 258 251 252 255 259 264 268 271 275 277 279 283 280 264 245 238 237 238 234 230 232 239 241 239 236 231 229 231 236 239 241 241
198 210 184 185 209 211 207 216 224 226 220 217 221 229 233 230 229 234 231 226 224 222 218 212 205 203 206 209 208 206 208 202 181 173 175 177 177 178 183 193 204 215 232 240 240 242 243 244 246 249 250 254 258 261 259 252 247 247 250 255 260 263 267 272 274 274 277 279 272 255 241 237 241 241 235 231 234 238 239 238 235 228 225 229 235 238 238
204 207 198 207 217 214 212 221 226 226 224 219 219 224 227 228 233 239 236 216 203 202 204 205 203 190 180 189 199 205 213 205 186 181 187 192 193 196 203 215 228 246 264 266 259 255 254 252 250 249 251 256 259 256 252 247 244 246 249 252 256 260 263 267 269 270 272 274 273 264 250 242 241 242 239 235 234 236 239 240 235 228 224 225 228 228 229
216 217 200 196 208 221 226 227 228 228 225 219 219 223 226 228 233 239 240 228 213 208 205 208 217 216 205 204 207 212 220 218 208 206 210 214 219 225 231 236 240 252 271 276 265 254 250 248 247 249 252 255 255 250 247 246 246 247 249 251 253 256 259 262 264 265 267 269 269 266 259 251 246 245 244 241 240 240 241 241 239 234 232 231 228 222 220
215 212 203 195 194 216 228 227 229 231 229 223 223 228 230 231 234 238 242 242 239 235 231 230 237 244 243 239 237 234 233 232 235 240 244 248 250 253 253 249 246 252 266 269 262 254 247 244 246 251 253 253 250 246 244 245 247 248 250 252 253 254 256 259 261 261 262 264 265 266 264 258 252 250 249 247 246 246 245 244 243 241 242 241 234 225 223
231 214 214 216 213 221 233 232 232 234 232 228 230 235 237 238 239 241 244 248 250 251 248 244 244 248 252 256 257 256 253 252 253 255 257 258 258 259 259 255 253 255 257 254 251 251 249 246 249 253 252 250 247 244 243 244 247 249 250 252 253 253 255 257 259 260 261 261 262 263 264 261 256 253 250 248 249 249 250 249 246 243 243 241 234 228 229
265 244 232 226 219 223 235 237 238 239 234 229 231 236 241 244 246 247 247 249 252 255 255 252 250 250 254 259 261 261 261 261 261 261 262 262 261 261 258 253 250 248 243 240 246 251 252 250 250 250 248 244 241 240 241 243 245 247 249 250 252 254 255 257 258 260 260 259 260 260 260 259 257 254 251 249 247 247 249 250 249 245 240 234 228 227 233
276 276 268 258 239 231 236 240 243 243 238 231 231 237 242 247 250 251 249 248 250 253 254 255 255 255 258 260 262 261 262 264 265 264 264 263 260 256 252 244 238 236 236 240 248 252 249 247 247 246 245 243 240 240 242 243 245 248 249 250 253 255 256 257 257 258 258 257 257 257 257 258 257 255 254 252 248 247 247 247 247 244 238 230 225 227 233
267 273 280 289 282 250 244 247 249 246 242 236 234 238 243 248 251 253 252 250 251 252 254 256 258 259 260 262 263 263 263 265 265 263 260 257 252 246 241 235 234 236 239 242 245 246 246 245 246 247 248 246 243 243 243 244 247 250 251 253 254 255 257 258 256 257 258 258 257 256 257 258 258 258 257 256 252 249 247 246 245 242 236 230 227 229 233
264 263 268 282 291 261 249 247 246 245 243 240 239 242 246 250 253 256 256 254 253 254 255 258 260 261 262 263 264 264 265 264 261 256 251 247 244 241 238 236 236 237 237 237 240 244 246 246 247 250 252 250 247 245 245 245 247 250 252 253 254 255 256 257 255 255 255 256 257 256 255 256 258 258 258 257 255 252 249 247 245 243 240 235 232 231 233
270 267 264 262 264 264 262 261 259 253 246 242 244 246 246 247 249 252 253 253 254 256 257 258 259 258 259 262 263 263 264 261 256 249 243 242 244 243 239 237 235 235 234 236 240 245 247 248 249 252 253 250 246 245 245 245 247 249 251 252 253 254 255 255 255 254 253 254 255 255 255 256 257 258 259 258 257 256 254 252 250 248 246 243 240 238 238
267 268 269 265 260 262 265 269 274 274 258 246 244 244 242 240 240 244 248 251 254 257 257 256 256 256 256 258 258 259 258 255 250 246 245 245 244 241 237 236 236 235 237 239 243 247 249 249 248 248 248 246 243 243 246 247 247 249 251 252 253 255 255 256 257 256 254 254 254 254 255 254 254 256 257 257 257 256 255 255 256 255 252 249 247 244 242
268 270 278 281 279 278 272 266 270 277 274 260 247 241 238 235 234 239 245 249 251 253 253 252 254 256 256 255 254 253 250 246 241 243 248 248 243 239 238 238 239 240 244 247 249 250 248 245 241 239 238 238 238 239 243 247 250 252 253 253 255 256 257 258 259 257 256 255 255 255 255 253 251 252 253 254 255 255 254 254 257 258 257 256 252 249 246
281 278 285 294 297 300 297 279 269 271 274 268 257 249 242 235 233 237 243 245 246 249 252 252 253 253 253 253 252 250 248 243 239 241 244 243 241 239 238 239 242 246 251 254 253 249 245 243 241 238 235 236 238 239 241 246 250 253 254 255 256 258 259 259 259 257 255 254 254 254 255 254 252 251 250 251 253 254 253 253 253 254 255 255 255 253 250
298 289 294 309 311 308 321 321 291 280 274 265 258 254 248 239 236 238 241 241 242 246 249 251 250 249 249 249 249 249 249 246 242 240 238 235 235 235 236 239 244 249 253 255 252 250 249 249 249 249 247 247 249 247 245 246 250 253 255 257 258 259 260 260 260 258 256 254 252 252 252 252 252 252 251 251 253 254 254 254 253 253 253 252 251 250 248
329 317 321 335 332 325 333 343 340 332 316 277 252 244 240 238 239 241 241 239 239 241 242 242 242 242 242 243 244 246 247 245 241 237 234 232 231 232 234 238 244 249 253 253 250 247 249 252 255 258 260 263 265 263 257 253 252 254 257 259 259 259 258 257 257 257 256 254 252 250 250 251 252 252 252 253 253 253 254 254 255 256 255 254 253 250 247
348 351 352 354 352 343 335 333 333 336 336 318 273 244 234 234 238 240 238 233 230 230 230 230 231 234 236 237 238 240 242 241 236 231 229 227 227 229 234 239 242 246 248 248 246 245 249 254 258 261 264 267 269 269 266 260 257 256 257 259 260 258 257 256 254 254 253 253 253 252 251 251 251 251 252 253 254 253 254 256 258 258 257 257 257 256 253
316 298 300 322 341 343 335 334 333 331 331 329 310 265 233 226 229 230 229 225 222 223 226 226 227 228 229 230 231 231 230 229 226 223 223 223 224 229 235 239 243 245 245 244 245 247 252 259 265 268 268 269 271 272 271 268 262 258 258 259 260 260 259 257 255 253 253 255 256 254 253 252 252 251 251 252 254 254 254 255 257 257 258 259 260 258 257
302 288 284 294 308 316 320 327 330 326 329 335 327 296 227 213 218 218 218 219 218 219 220 219 216 214 212 211 212 213 214 215 216 217 220 223 226 231 236 239 243 248 249 249 250 253 257 264 271 274 273 273 272 271 269 265 261 257 255 256 259 261 260 258 256 254 253 254 255 255 255 255 256 255 254 253 253 254 255 255 256 257 258 259 259 258 257
324 305 287 290 304 309 308 310 311 303 300 313 317 306 250 224 218 211 213 217 216 214 212 206 202 200 196 194 197 201 203 206 211 213 216 221 225 230 235 242 249 255 257 260 266 269 270 274 280 281 279 275 272 269 264 259 255 253 253 254 256 258 258 258 257 255 254 253 253 255 256 255 254 254 254 253 253 253 254 255 256 257 258 259 259 257 256
330 332 323 320 320 312 317 326 311 284 273 276 286 300 305 275 234 214 215 214 203 198 196 194 192 191 187 187 193 197 198 203 209 210 213 217 219 218 223 236 248 255 258 262 272 280 283 286 287 286 283 278 274 270 266 261 257 255 254 254 256 256 256 257 257 256 255 254 253 254 255 255 255 254 253 253 253 253 254 255 256 257 258 259 259 258 257
322 323 329 347 16 44 51 26 325 298 284 275 280 297 308 299 275 242 223 211 195 187 185 185 187 187 184 185 191 195 198 204 207 207 210 210 200 188 201 220 229 232 227 225 243 262 273 278 279 277 274 272 271 270 269 268 267 264 260 259 259 258 258 257 257 257 256 255 254 254 254 255 256 256 255 254 254 254 255 255 256 256 257 258 258 258 258
353 359 5 21 34 46 61 61 42 12 329 287 285 298 304 300 296 282 249 219 200 190 184 180 180 182 181 183 188 193 199 203 203 201 201 191 170 165 184 199 202 200 201 204 214 228 237 250 261 262 260 262 266 267 268 268 269 269 267 265 264 263 262 260 259 258 257 255 254 254 253 253 254 256 256 256 255 255 256 256 256 256 256 256 256 257 258
18 30 58 76 74 71 78 76 54 23 359 345 330 310 302 299 296 287 275 263 241 210 195 186 183 180 173 175 185 193 199 200 195 191 189 181 170 172 182 190 194 202 206 205 209 215 220 236 254 258 256 256 260 265 269 270 272 274 275 273 271 270 269 267 265 263 261 259 257 256 255 254 253 254 255 256 256 256 256 257 257 257 257 257 257 257 257
36 43 64 74 72 75 82 83 69 35 21 30 48 56 66 108 158 251 268 272 267 252 230 203 187 175 158 161 178 186 181 172 163 164 176 181 180 182 190 198 218 234 231 228 229 229 230 243 255 260 262 261 262 267 275 281 284 288 290 289 285 281 277 274 271 269 266 264 262 261 259 257 255 253 254 256 257 257 257 258 258 258 258 259 258 258 258
41 51 65 68 66 69 72 71 74 73 59 50 53 59 74 99 112 112 116 155 242 257 248 226 195 160 153 163 169 166 161 152 139 138 154 173 182 191 204 223 244 252 251 252 258 266 267 262 261 264 270 272 273 276 282 286 290 293 294 293 291 287 284 282 277 271 268 265 264 263 262 260 258 257 256 256 257 258 259 260 260 260 261 262 262 261 260
52 57 62 65 68 72 70 69 78 84 73 62 62 67 73 83 88 87 89 90 84 80 83 82 83 95 107 114 121 123 128 134 136 143 159 180 191 200 220 244 256 260 262 267 275 283 283 276 272 276 281 283 283 284 286 288 290 292 293 294 292 289 288 289 285 277 271 267 264 263 263 262 261 260 260 260 260 261 261 262 263 264 264 264 264 264 264
64 65 65 69 76 76 69 65 70 78 76 71 71 73 75 78 79 76 75 74 72 70 69 67 68 72 72 67 68 70 59 53 72 100 137 230 244 245 255 265 269 271 273 277 279 281 280 278 280 283 284 283 282 284 286 288 290 290 291 293 294 293 290 289 287 282 279 274 269 266 264 263 262 262 260 260 260 261 262 263 264 265 267 267 266 266 265
69 69 71 75 79 76 71 66 70 79 84 81 77 75 75 76 73 69 66 65 65 63 60 59 60 60 59 60 66 69 58 43 44 46 34 4 335 324 319 311 305 302 300 298 294 289 286 286 287 286 284 284 286 287 287 287 289 289 289 290 292 292 288 282 276 274 278 279 276 272 268 266 265 263 262 261 260 260 260 261 262 263 264 267 268 268 268
73 74 75 75 76 77 75 73 75 81 85 82 75 72 72 73 73 70 66 62 62 60 55 51 53 54 53 54 57 58 58 66 71 57 37 11 342 332 334 337 336 333 330 327 320 312 306 304 302 299 296 296 296 294 292 292 293 293 292 291 290 289 284 277 268 263 264 268 272 276 276 274 271 268 265 263 261 260 260 260 260 261 262 264 266 268 269
78 80 79 78 78 78 77 75 73 72 71 69 67 65 66 67 70 71 70 69 69 68 62 57 54 54 53 52 50 48 54 69 78 57 31 15 356 345 348 354 357 356 352 347 339 329 321 317 315 312 310 310 308 305 303 302 302 300 299 297 294 291 287 279 271 266 265 265 268 274 280 283 282 280 277 272 267 264 262 261 261 261 262 263 265 267 269
81 85 85 82 77 74 72 71 70 67 64 63 63 62 61 59 61 64 67 66 65 64 63 60 58 56 55 55 51 45 47 54 53 34 22 18 8 355 352 353 354 355 354 352 346 339 333 328 324 320 319 320 320 319 318 315 312 310 308 305 300 296 293 287 279 274 271 269 267 267 270 276 282 286 287 286 281 276 270 267 265 264 263 263 264 265 267
85 85 83 77 71 66 65 65 64 62 60 59 58 58 56 53 51 52 54 54 52 51 52 52 50 49 49 50 46 40 37 35 30 24 20 15 5 357 352 349 347 348 348 346 342 337 332 328 326 325 325 325 326 326 325 325 324 322 320 316 312 308 302 295 288 281 275 269 266 264 264 266 269 274 280 285 288 288 285 281 276 272 269 266 266 265 265
86 83 79 73 67 64 63 62 61 60 58 56 54 53 51 47 42 38 37 38 37 37 39 40 39 35 33 32 31 26 19 13 10 9 7 4 1 357 351 345 342 341 339 337 334 332 330 328 326 326 326 326 325 324 324 325 326 326 325 323 323 320 315 306 299 291 280 270 265 263 261 261 262 265 268 272 278 285 288 288 286 283 279 276 273 272 270
84 83 80 74 67 64 61 59 58 57 55 52 51 50 49 45 40 36 34 30 26 24 25 28 25 19 15 13 11 9 5 1 358 355 353 352 352 349 344 340 338 335 333 332 330 327 325 325 324 323 322 322 322 322 322 322 323 324 323 322 321 320 319 315 307 297 286 275 269 266 265 265 265 266 267 267 269 273 277 281 285 288 288 286 283 281 278
Height
1384 1383 1388 1390 1388 1389 1393 1398 1404 1409 1416 1422 1420 1411 1400 1402 1402 1382 1374 1387 1379 1367 1375 1378 1373 1374 1373 1373 1376 1376 1376 1378 1378 1378 1378 1378 1379 1380 1380 1381 1381 1381 1382 1382 1382 1382 1382 1383 1382 1382 1382 1381 1381 1381 1380 1380 1379 1379 1378 1378 1378 1378 1378 1378 1380 1381 1382 1383 1385 1386 1387 1389 1390 1392 1393 1395 1397 1398 1400 1401 1402 1404 1405 1406 1408 1410 1413
1386 1385 1390 1390 1388 1388 1390 1392 1396 1400 1406 1408 1405 1398 1394 1398 1390 1375 1380 1385 1367 1360 1371 1371 1367 1370 1370 1372 1375 1373 1373 1374 1373 1374 1375 1374 1375 1376 1376 1377 1377 1378 1379 1379 1379 1379 1379 1379 1379 1379 1379 1378 1378 1378 1378 1377 1377 1376 1375 1375 1375 1375 1375 1375 1376 1377 1378 1379 1380 1382 1383 1384 1386 1387 1389 1390 1392 1393 1394 1396 1398 1399 1401 1402 1403 1405 1408
1387 1383 1387 1391 1390 1387 1387 1390 1393 1395 1397 1398 1395 1390 1391 1397 1389 1378 1388 1388 1362 1353 1364 1367 1367 1369 1368 1369 1370 1369 1370 1369 1369 1371 1370 1369 1370 1370 1372 1373 1374 1375 1376 1375 1376 1376 1376 1376 1376 1376 1376 1376 1376 1375 1375 1374 1374 1373 1372 1372 1372 1372 1372 1373 1373 1374 1374 1375 1377 1378 1379 1381 1382 1383 1385 1386 1388 1389 1390 1392 1393 1395 1397 1398 1399 1401 1403
1384 1378 1383 1390 1391 1390 1391 1390 1388 1388 1390 1387 1383 1382 1384 1387 1383 1384 1397 1386 1354 1347 1362 1366 1365 1366 1365 1365 1365 1365 1364 1363 1365 1366 1365 1365 1365 1366 1368 1369 1370 1371 1372 1372 1372 1373 1373 1373 1373 1373 1373 1374 1373 1373 1373 1372 1371 1370 1370 1369 1369 1369 1370 1370 1370 1371 1372 1372 1373 1374 1376 1377 1378 1380 1381 1382 1384 1385 1386 1388 1390 1391 1393 1394 1395 1397 1399
1379 1375 1381 1387 1392 1396 1391 1378 1371 1375 1378 1375 1374 1377 1376 1376 1377 1382 1382 1361 1341 1349 1363 1361 1360 1362 1360 1358 1359 1359 1358 1358 1361 1361 1360 1360 1361 1363 1365 1365 1366 1368 1368 1368 1369 1369 1370 1370 1370 1371 1371 1371 1371 1370 1370 1369 1368 1368 1367 1367 1367 1366 1367 1367 1367 1368 1369 1369 1370 1371 1372 1374 1375 1376 1378 1378 1380 1382 1383 1385 1386 1387 1389 1390 1392 1394 1395
1378 1377 1381 1387 1391 1387 1371 1356 1355 1361 1364 1366 1371 1370 1368 1370 1371 1366 1356 1342 1341 1354 1358 1353 1353 1354 1351 1350 1351 1352 1354 1356 1356 1355 1355 1356 1357 1360 1361 1361 1362 1364 1364 1365 1366 1366 1367 1368 1368 1369 1368 1368 1369 1368 1367 1367 1366 1366 1365 1364 1364 1364 1364 1364 1364 1365 1366 1366 1367 1368 1369 1371 1372 1372 1374 1375 1377 1379 1380 1382 1383 1384 1385 1387 1388 1390 1392
1379 1380 1386 1389 1381 1367 1354 1350 1352 1353 1353 1359 1365 1361 1356 1361 1363 1358 1352 1344 1343 1350 1350 1347 1347 1345 1344 1345 1345 1347 1350 1351 1349 1348 1348 1351 1354 1354 1355 1355 1358 1360 1360 1361 1362 1363 1364 1365 1365 1366 1365 1366 1366 1365 1365 1365 1364 1364 1363 1362 1362 1362 1361 1362 1362 1362 1362 1363 1364 1365 1366 1367 1368 1369 1370 1372 1374 1376 1377 1378 1379 1381 1382 1383 1384 1386 1388
1378 1381 1384 1376 1359 1349 1350 1352 1351 1350 1351 1356 1361 1357 1350 1351 1354 1354 1349 1340 1338 1345 1346 1342 1340 1340 1342 1341 1339 1341 1345 1343 1342 1342 1342 1345 1347 1345 1347 1350 1352 1355 1356 1357 1358 1359 1360 1361 1362 1362 1363 1363 1362 1362 1362 1362 1361 1361 1361 1360 1360 1359 1359 1359 1359 1359 1360 1360 1361 1362 1363 1364 1365 1366 1368 1369 1371 1373 1374 1375 1376 1377 1378 1379 1381 1383 1384
1370 1373 1371 1362 1355 1352 1348 1345 1343 1345 1346 1348 1355 1353 1341 1337 1344 1345 1339 1334 1335 1339 1339 1336 1336 1340 1343 1338 1330 1332 1336 1335 1336 1338 1337 1337 1338 1339 1341 1344 1346 1349 1351 1353 1355 1356 1357 1358 1358 1359 1360 1360 1359 1360 1359 1359 1359 1359 1358 1358 1357 1357 1357 1357 1357 1357 1357 1357 1358 1359 1360 1361 1362 1363 1365 1367 1369 1370 1371 1372 1373 1374 1375 1377 1378 1379 1381
1361 1365 1365 1363 1366 1357 1342 1333 1335 1340 1341 1341 1349 1349 1332 1322 1331 1336 1331 1327 1328 1330 1332 1331 1334 1342 1345 1333 1318 1320 1328 1329 1330 1332 1330 1330 1332 1333 1335 1337 1340 1344 1346 1348 1351 1352 1352 1354 1354 1356 1356 1356 1357 1357 1357 1357 1357 1356 1356 1356 1355 1355 1355 1354 1354 1354 1354 1355 1355 1355 1356 1357 1359 1361 1362 1364 1366 1367 1368 1369 1370 1372 1373 1374 1375 1376 1377
1355 1361 1360 1358 1355 1344 1331 1327 1331 1338 1340 1338 1349 1353 1331 1312 1317 1323 1319 1318 1319 1322 1324 1325 1331 1342 1341 1323 1309 1313 1322 1324 1325 1326 1324 1323 1325 1326 1328 1331 1334 1338 1341 1344 1346 1347 1348 1350 1351 1352 1353 1353 1354 1354 1354 1355 1354 1354 1354 1354 1353 1353 1352 1352 1352 1351 1351 1352 1352 1352 1353 1354 1356 1358 1360 1362 1363 1364 1365 1366 1367 1369 1370 1371 1372 1373 1374
1348 1352 1351 1346 1341 1332 1327 1327 1329 1333 1333 1336 1350 1350 1323 1303 1306 1309 1308 1313 1315 1315 1318 1322 1329 1333 1325 1312 1307 1312 1317 1319 1321 1321 1319 1319 1319 1320 1323 1326 1328 1333 1336 1339 1341 1343 1344 1346 1348 1349 1350 1351 1351 1352 1352 1352 1352 1352 1352 1351 1351 1351 1350 1349 1349 1349 1349 1349 1348 1349 1350 1352 1354 1356 1357 1359 1360 1361 1362 1364 1364 1365 1366 1368 1369 1370 1371
1342 1344 1343 1339 1332 1325 1324 1326 1327 1330 1336 1340 1339 1324 1304 1300 1305 1304 1305 1310 1310 1309 1314 1318 1319 1315 1310 1306 1308 1312 1315 1317 1317 1318 1317 1316 1316 1317 1319 1321 1324 1328 1332 1334 1338 1340 1342 1344 1345 1346 1347 1348 1348 1349 1349 1349 1349 1350 1350 1349 1349 1348 1348 1347 1347 1346 1346 1346 1345 1346 1347 1349 1351 1352 1354 1356 1357 1358 1360 1361 1361 1362 1363 1365 1366 1367 1369
1335 1335 1335 1334 1327 1318 1317 1323 1327 1330 1333 1329 1314 1300 1296 1301 1303 1302 1304 1305 1303 1305 1309 1309 1308 1306 1305 1307 1308 1311 1313 1314 1314 1316 1316 1314 1314 1314 1314 1317 1321 1325 1328 1332 1336 1338 1340 1342 1342 1343 1344 1344 1345 1346 1345 1346 1347 1348 1347 1347 1346 1346 1345 1345 1344 1344 1343 1343 1343 1343 1344 1346 1348 1349 1351 1353 1354 1355 1357 1358 1358 1359 1360 1361 1363 1364 1366
1327 1329 1330 1330 1321 1309 1309 1320 1326 1323 1313 1302 1296 1296 1299 1298 1297 1300 1303 1301 1301 1303 1303 1303 1303 1303 1304 1306 1307 1308 1310 1311 1312 1313 1313 1312 1312 1312 1312 1315 1319 1323 1327 1331 1333 1336 1338 1339 1340 1341 1341 1341 1342 1342 1342 1343 1345 1345 1344 1344 1344 1343 1343 1342 1342 1341 1341 1340 1340 1341 1341 1343 1344 1346 1348 1350 1351 1352 1353 1354 1355 1356 1358 1359 1360 1362 1362
1316 1319 1316 1310 1303 1299 1301 1306 1307 1303 1296 1293 1295 1298 1296 1294 1296 1299 1299 1299 1300 1300 1299 1301 1301 1301 1302 1304 1305 1306 1308 1308 1309 1310 1310 1310 1311 1311 1313 1316 1318 1323 1326 1329 1332 1334 1335 1336 1337 1337 1337 1338 1338 1338 1338 1341 1343 1342 1342 1342 1341 1341 1340 1340 1339 1339 1338 1338 1338 1338 1339 1339 1341 1342 1344 1346 1347 1349 1350 1350 1352 1353 1355 1356 1357 1358 1359
1295 1296 1295 1293 1294 1297 1297 1291 1287 1290 1293 1295 1296 1295 1293 1294 1296 1296 1297 1298 1298 1298 1299 1299 1299 1299 1300 1301 1303 1305 1306 1306 1307 1308 1309 1310 1311 1313 1315 1317 1320 1323 1325 1327 1330 1331 1332 1333 1334 1334 1334 1335 1334 1334 1336 1339 1339 1339 1339 1339 1338 1338 1338 1337 1337 1337 1336 1336 1335 1336 1336 1337 1337 1339 1341 1342 1344 1345 1346 1347 1348 1350 1352 1354 1354 1355 1356
1286 1288 1289 1291 1294 1294 1291 1287 1285 1289 1292 1292 1293 1294 1293 1294 1295 1296 1296 1296 1296 1298 1299 1298 1298 1299 1299 1300 1302 1304 1305 1306 1307 1308 1309 1311 1313 1315 1316 1318 1320 1322 1324 1326 1327 1328 1329 1330 1330 1331 1331 1331 1330 1332 1334 1335 1336 1336 1336 1336 1335 1335 1335 1335 1335 1335 1334 1333 1333 1333 1334 1334 1334 1335 1337 1339 1341 1342 1343 1344 1345 1346 1348 1350 1351 1352 1353
1284 1286 1287 1288 1289 1289 1288 1287 1286 1287 1289 1290 1291 1292 1291 1292 1294 1295 1294 1294 1295 1297 1297 1297 1298 1298 1298 1300 1301 1303 1304 1306 1306 1307 1310 1313 1313 1315 1317 1318 1320 1321 1322 1323 1324 1325 1326 1326 1327 1328 1328 1327 1328 1329 1330 1331 1332 1332 1332 1332 1332 1332 1332 1332 1332 1332 1331 1331 1331 1331 1331 1331 1332 1332 1333 1335 1337 1338 1339 1340 1341 1343 1344 1346 1348 1349 1350
1276 1278 1280 1281 1283 1285 1286 1286 1284 1285 1286 1286 1286 1287 1287 1290 1292 1292 1293 1294 1295 1294 1295 1297 1297 1297 1298 1299 1300 1302 1305 1306 1306 1308 1310 1311 1313 1315 1316 1317 1318 1319 1320 1320 1321 1322 1322 1323 1324 1325 1324 1325 1326 1327 1327 1327 1328 1328 1328 1328 1328 1329 1329 1329 1329 1329 1329 1329 1328 1328 1328 1329 1329 1329 1330 1331 1333 1334 1334 1336 1338 1339 1341 1342 1344 1346 1347
1272 1274 1276 1279 1283 1284 1283 1282 1280 1280 1280 1281 1282 1282 1283 1286 1288 1289 1291 1293 1294 1294 1295 1295 1295 1296 1298 1299 1301 1303 1304 1306 1307 1308 1309 1311 1313 1314 1314 1315 1316 1317 1317 1317 1317 1318 1319 1320 1321 1321 1322 1322 1323 1323 1324 1324 1324 1325 1325 1325 1325 1325 1325 1326 1326 1326 1326 1326 1326 1325 1325 1326 1326 1326 1327 1328 1329 1330 1331 1333 1335 1337 1339 1340 1342 1344 1345
1270 1271 1272 1274 1277 1277 1274 1273 1274 1273 1275 1278 1279 1279 1281 1283 1284 1286 1287 1289 1291 1292 1293 1293 1294 1295 1296 1298 1300 1301 1302 1304 1306 1307 1308 1309 1310 1311 1313 1313 1313 1314 1315 1315 1314 1315 1316 1317 1318 1318 1319 1319 1320 1321 1321 1321 1321 1321 1321 1321 1322 1322 1322 1322 1322 1323 1323 1323 1323 1323 1323 1323 1323 1324 1324 1325 1326 1327 1329 1330 1332 1334 1336 1338 1341 1343 1344
1267 1265 1265 1265 1267 1267 1265 1266 1268 1269 1272 1276 1277 1277 1279 1280 1281 1283 1285 1286 1287 1288 1289 1290 1291 1292 1294 1296 1297 1297 1298 1300 1301 1302 1304 1305 1306 1308 1309 1309 1310 1311 1312 1312 1311 1312 1313 1314 1315 1315 1315 1316 1317 1317 1317 1318 1318 1318 1318 1318 1318 1318 1318 1319 1319 1319 1320 1320 1320 1321 1320 1320 1320 1321 1322 1323 1323 1325 1326 1328 1329 1331 1333 1335 1338 1342 1343
1270 1266 1263 1262 1263 1264 1262 1262 1264 1266 1269 1273 1274 1275 1277 1279 1280 1282 1283 1283 1285 1286 1286 1287 1288 1290 1291 1293 1293 1293 1294 1295 1296 1298 1299 1300 1302 1304 1304 1305 1306 1307 1307 1308 1309 1309 1310 1311 1311 1311 1312 1312 1313 1313 1314 1314 1314 1314 1314 1314 1314 1314 1315 1316 1316 1316 1317 1317 1318 1318 1318 1318 1318 1318 1319 1320 1321 1322 1324 1325 1326 1327 1329 1331 1334 1337 1340
1274 1270 1266 1265 1264 1262 1260 1260 1263 1265 1267 1269 1270 1272 1274 1277 1278 1279 1280 1281 1283 1283 1283 1284 1285 1286 1287 1288 1289 1289 1289 1290 1292 1293 1294 1296 1297 1299 1300 1301 1302 1303 1304 1305 1306 1306 1307 1308 1308 1308 1308 1308 1309 1310 1310 1310 1310 1310 1310 1310 1310 1311 1312 1312 1313 1313 1313 1314 1314 1315 1315 1315 1315 1316 1316 1317 1317 1319 1321 1323 1324 1324 1325 1327 1330 1333 1335
1272 1270 1268 1267 1266 1264 1262 1261 1262 1262 1264 1265 1266 1267 1270 1272 1274 1276 1278 1279 1278 1279 1280 1280 1281 1282 1283 1284 1284 1285 1285 1286 1287 1288 1290 1292 1293 1295 1296 1298 1299 1300 1301 1302 1302 1303 1303 1304 1304 1304 1304 1305 1306 1306 1306 1306 1306 1306 1306 1307 1307 1308 1308 1309 1310 1310 1310 1311 1311 1311 1312 1313 1313 1313 1314 1314 1315 1317 1318 1319 1321 1321 1321 1323 1326 1329 1331
1268 1267 1266 1266 1265 1264 1262 1258 1257 1258 1259 1261 1263 1264 1266 1268 1271 1273 1274 1275 1275 1276 1276 1276 1277 1278 1279 1279 1280 1281 1281 1282 1283 1284 1286 1287 1289 1292 1294 1295 1296 1297 1298 1298 1299 1299 1299 1300 1300 1300 1301 1302 1303 1302 1302 1303 1303 1302 1303 1303 1304 1304 1305 1305 1306 1306 1307 1308 1308 1309 1309 1309 1310 1310 1311 1312 1313 1314 1315 1316 1317 1318 1319 1321 1323 1325 1327
1265 1265 1265 1264 1264 1263 1261 1258 1256 1256 1257 1258 1259 1260 1262 1265 1267 1269 1270 1271 1272 1273 1273 1273 1274 1274 1274 1275 1276 1277 1277 1278 1280 1281 1282 1284 1287 1289 1291 1293 1294 1294 1294 1295 1295 1295 1296 1296 1297 1297 1298 1299 1299 1298 1299 1299 1299 1299 1299 1299 1300 1301 1301 1301 1302 1303 1304 1305 1305 1305 1306 1307 1307 1308 1309 1310 1311 1311 1312 1314 1314 1315 1316 1318 1320 1323 1324
1262 1262 1262 1262 1261 1260 1259 1258 1256 1256 1256 1256 1256 1257 1259 1261 1263 1264 1265 1266 1268 1269 1269 1270 1271 1271 1271 1272 1272 1273 1274 1275 1276 1278 1280 1282 1285 1287 1289 1290 1291 1290 1290 1291 1292 1292 1293 1293 1293 1294 1296 1296 1295 1295 1295 1295 1295 1296 1296 1296 1296 1297 1297 1298 1299 1300 1301 1301 1302 1302 1303 1304 1305 1305 1306 1306 1307 1308 1309 1310 1311 1312 1313 1315 1318 1319 1320
1257 1257 1258 1258 1258 1258 1257 1256 1255 1256 1256 1256 1255 1255 1256 1257 1259 1260 1261 1263 1264 1265 1265 1267 1268 1268 1268 1269 1269 1270 1271 1272 1274 1276 1278 1280 1283 1285 1287 1287 1286 1286 1287 1289 1290 1290 1291 1291 1291 1292 1292 1292 1292 1291 1291 1291 1292 1292 1292 1293 1293 1293 1294 1295 1296 1296 1297 1298 1298 1299 1300 1301 1301 1301 1302 1303 1304 1305 1306 1307 1308 1309 1310 1312 1313 1314 1315
1255 1254 1255 1256 1256 1256 1255 1254 1253 1254 1255 1255 1255 1255 1254 1255 1255 1256 1257 1259 1260 1262 1263 1264 1265 1265 1265 1266 1267 1268 1269 1270 1272 1274 1276 1279 1281 1283 1283 1282 1282 1283 1285 1286 1287 1288 1288 1288 1289 1289 1290 1289 1288 1287 1287 1288 1288 1288 1289 1289 1289 1290 1291 1292 1292 1293 1293 1294 1295 1296 1296 1297 1297 1298 1298 1299 1300 1301 1302 1303 1305 1306 1307 1308 1309 1310 1311
1254 1252 1253 1254 1254 1254 1253 1253 1252 1252 1252 1253 1253 1254 1254 1254 1253 1253 1254 1256 1257 1259 1260 1261 1261 1262 1263 1263 1264 1265 1266 1268 1269 1271 1274 1276 1278 1278 1278 1278 1278 1280 1282 1284 1285 1285 1285 1286 1287 1288 1287 1286 1285 1284 1284 1284 1284 1284 1285 1285 1285 1286 1287 1288 1289 1289 1290 1290 1291 1291 1292 1292 1293 1294 1294 1296 1296 1297 1298 1299 1301 1302 1303 1305 1306 1307 1310
1255 1253 1254 1254 1253 1252 1252 1252 1252 1252 1252 1252 1252 1252 1252 1252 1251 1251 1252 1253 1254 1256 1257 1257 1258 1259 1260 1261 1262 1263 1264 1265 1266 1268 1270 1272 1273 1274 1274 1274 1275 1277 1279 1281 1282 1283 1283 1284 1285 1285 1284 1283 1282 1280 1280 1280 1280 1281 1281 1281 1282 1283 1283 1284 1285 1286 1286 1286 1287 1287 1288 1288 1289 1290 1291 1292 1293 1294 1294 1295 1296 1297 1299 1300 1302 1304 1307
1259 1258 1259 1258 1257 1255 1254 1253 1252 1252 1252 1252 1251 1250 1250 1250 1249 1249 1250 1251 1252 1253 1253 1254 1255 1256 1257 1258 1259 1260 1261 1262 1263 1265 1266 1268 1269 1270 1271 1272 1273 1275 1276 1278 1279 1280 1281 1281 1282 1282 1281 1280 1278 1276 1276 1276 1277 1277 1277 1278 1278 1279 1279 1281 1281 1282 1282 1282 1283 1283 1284 1285 1285 1286 1287 1288 1289 1290 1291 1292 1292 1293 1294 1295 1297 1299 1302
1259 1259 1258 1258 1257 1256 1255 1254 1253 1252 1252 1252 1251 1250 1249 1249 1248 1248 1249 1249 1250 1250 1251 1252 1252 1253 1254 1255 1256 1257 1258 1259 1260 1262 1263 1265 1266 1267 1269 1270 1271 1273 1274 1275 1276 1277 1277 1277 1278 1278 1278 1277 1275 1274 1273 1273 1273 1274 1274 1274 1274 1275 1276 1277 1277 1278 1279 1279 1280 1280 1280 1280 1281 1282 1283 1285 1285 1286 1287 1288 1289 1289 1290 1291 1292 1294 1296
1257 1257 1257 1256 1256 1256 1255 1255 1254 1253 1253 1252 1251 1250 1249 1248 1247 1247 1247 1248 1248 1248 1249 1250 1250 1251 1252 1253 1254 1254 1255 1256 1257 1259 1260 1262 1263 1265 1266 1267 1269 1270 1271 1272 1272 1273 1273 1274 1274 1275 1275 1274 1273 1272 1270 1269 1269 1269 1270 1270 1270 1272 1273 1273 1274 1275 1275 1276 1276 1277 1277 1277 1278 1279 1280 1281 1282 1282 1283 1284 1285 1285 1286 1287 1288 1290 1291
1256 1256 1255 1255 1254 1254 1254 1254 1254 1253 1252 1252 1251 1250 1249 1248 1247 1246 1247 1247 1247 1248 1248 1249 1249 1250 1250 1250 1251 1252 1253 1254 1255 1256 1258 1259 1261 1262 1263 1264 1265 1266 1267 1268 1269 1270 1270 1271 1271 1271 1271 1271 1270 1269 1267 1265 1265 1265 1265 1265 1266 1268 1269 1270 1271 1271 1272 1273 1273 1273 1273 1274 1274 1274 1275 1276 1277 1278 1279 1279 1280 1282 1283 1284 1285 1286 1287
1255 1255 1254 1253 1253 1253 1252 1252 1252 1252 1251 1251 1250 1249 1248 1247 1246 1246 1246 1247 1247 1247 1247 1248 1248 1249 1249 1249 1249 1249 1250 1251 1253 1254 1256 1257 1259 1259 1260 1261 1262 1263 1264 1266 1267 1268 1268 1268 1268 1267 1267 1268 1268 1268 1266 1264 1262 1261 1261 1261 1262 1264 1266 1267 1268 1268 1269 1269 1269 1270 1270 1270 1270 1270 1271 1272 1272 1273 1274 1275 1276 1278 1279 1280 1281 1282 1282
1255 1255 1254 1253 1252 1251 1251 1250 1250 1250 1249 1250 1250 1249 1249 1248 1247 1247 1246 1246 1246 1246 1246 1247 1247 1248 1248 1248 1247 1247 1248 1249 1250 1252 1254 1256 1257 1258 1258 1259 1260 1261 1262 1264 1265 1266 1266 1265 1264 1263 1263 1264 1266 1267 1266 1264 1261 1258 1258 1258 1259 1261 1262 1264 1265 1266 1266 1266 1266 1266 1266 1266 1267 1267 1267 1267 1268 1269 1270 1271 1272 1273 1274 1275 1277 1277 1278
1256 1255 1254 1254 1253 1252 1251 1250 1250 1249 1249 1249 1249 1249 1249 1249 1249 1248 1247 1246 1246 1246 1246 1246 1246 1247 1247 1247 1247 1247 1246 1247 1248 1250 1251 1254 1255 1256 1256 1257 1258 1259 1260 1262 1263 1263 1263 1262 1261 1260 1260 1260 1262 1264 1264 1263 1260 1257 1255 1255 1256 1258 1259 1261 1262 1263 1263 1263 1263 1263 1263 1263 1263 1263 1264 1264 1264 1265 1265 1267 1268 1269 1270 1271 1272 1273 1273
1256 1255 1254 1254 1253 1252 1252 1251 1250 1250 1249 1249 1248 1249 1249 1249 1249 1249 1248 1248 1247 1247 1246 1245 1245 1245 1246 1246 1246 1246 1246 1246 1247 1248 1249 1251 1253 1253 1254 1255 1256 1257 1258 1259 1260 1260 1260 1259 1257 1256 1256 1257 1259 1261 1262 1261 1259 1256 1253 1253 1254 1255 1257 1258 1259 1260 1260 1261 1261 1260 1260 1260 1260 1259 1260 1260 1260 1261 1261 1262 1263 1264 1265 1266 1267 1268 1269
1257 1255 1254 1254 1253 1252 1252 1251 1250 1250 1250 1249 1248 1248 1248 1248 1248 1248 1248 1248 1248 1248 1247 1245 1245 1245 1245 1246 1245 1246 1246 1246 1247 1247 1248 1249 1250 1251 1252 1253 1254 1255 1256 1257 1257 1257 1257 1256 1254 1253 1253 1254 1256 1258 1259 1259 1258 1255 1252 1251 1251 1252 1254 1255 1256 1257 1258 1258 1258 1258 1257 1257 1256 1256 1256 1256 1256 1257 1257 1258 1258 1259 1260 1261 1262 1263 1264
1256 1255 1254 1253 1253 1252 1251 1251 1250 1250 1249 1248 1248 1248 1247 1247 1247 1247 1247 1247 1248 1248 1247 1246 1245 1245 1245 1245 1245 1245 1246 1246 1247 1247 1247 1248 1248 1249 1250 1251 1252 1252 1253 1254 1255 1255 1255 1254 1252 1251 1252 1253 1254 1256 1257 1256 1255 1253 1251 1249 1248 1249 1250 1252 1253 1254 1255 1255 1255 1255 1255 1254 1253 1252 1252 1252 1252 1253 1253 1253 1254 1255 1255 1256 1258 1259 1260
1255 1254 1254 1253 1252 1252 1252 1251 1250 1250 1249 1248 1248 1247 1247 1247 1247 1246 1246 1247 1247 1247 1246 1246 1245 1245 1245 1244 1244 1244 1244 1245 1246 1247 1247 1247 1248 1249 1250 1250 1250 1250 1251 1252 1253 1254 1253 1252 1251 1251 1252 1252 1252 1253 1253 1253 1252 1251 1249 1247 1246 1246 1247 1249 1250 1251 1252 1252 1252 1252 1252 1251 1250 1250 1249 1249 1249 1249 1249 1249 1250 1250 1251 1252 1253 1254 1255
1255 1254 1253 1252 1252 1252 1251 1250 1250 1249 1249 1248 1248 1247 1247 1247 1247 1246 1246 1246 1246 1246 1246 1245 1245 1244 1244 1244 1243 1243 1243 1243 1244 1245 1245 1246 1248 1249 1250 1249 1249 1249 1249 1250 1251 1251 1251 1250 1250 1250 1250 1249 1249 1249 1249 1249 1248 1247 1246 1244 1243 1243 1244 1246 1247 1248 1249 1249 1249 1249 1249 1248 1248 1247 1246 1245 1245 1245 1245 1245 1246 1246 1247 1248 1249 1250 1251
1255 1254 1253 1252 1252 1252 1251 1251 1251 1250 1249 1249 1248 1248 1248 1248 1247 1247 1247 1247 1246 1246 1246 1246 1245 1244 1244 1243 1243 1243 1243 1242 1243 1244 1245 1246 1247 1248 1249 1249 1248 1247 1247 1248 1249 1249 1248 1248 1249 1248 1247 1246 1246 1245 1244 1244 1243 1243 1242 1241 1241 1241 1242 1243 1244 1245 1246 1246 1246 1245 1245 1245 1244 1244 1243 1242 1242 1241 1241 1241 1242 1242 1243 1243 1244 1245 1246
1255 1253 1253 1253 1254 1253 1252 1252 1252 1250 1250 1249 1249 1249 1250 1249 1249 1248 1248 1248 1247 1248 1248 1247 1246 1245 1244 1243 1243 1243 1243 1243 1244 1244 1245 1246 1247 1247 1247 1247 1246 1246 1245 1245 1246 1246 1246 1246 1246 1245 1244 1243 1243 1242 1240 1239 1239 1238 1238 1238 1238 1238 1239 1241 1242 1243 1243 1243 1242 1242 1242 1241 1241 1241 1240 1239 1239 1238 1238 1238 1237 1238 1238 1239 1240 1241 1242
1255 1254 1254 1255 1255 1254 1254 1253 1252 1251 1250 1250 1251 1251 1252 1251 1251 1251 1250 1249 1249 1249 1249 1248 1247 1246 1244 1243 1243 1243 1243 1244 1245 1246 1247 1247 1247 1246 1245 1245 1244 1244 1244 1243 1244 1244 1244 1243 1243 1243 1242 1241 1241 1240 1238 1237 1236 1235 1234 1235 1235 1235 1237 1238 1239 1240 1240 1240 1240 1239 1239 1238 1238 1238 1237 1236 1236 1235 1235 1234 1234 1234 1234 1235 1235 1236 1237
1256 1256 1256 1257 1257 1256 1255 1254 1253 1253 1253 1253 1253 1253 1253 1253 1253 1253 1252 1251 1251 1250 1250 1249 1249 1247 1246 1245 1244 1245 1245 1247 1247 1247 1247 1246 1246 1245 1244 1243 1242 1242 1242 1242 1242 1242 1242 1242 1241 1241 1240 1240 1239 1238 1237 1236 1234 1233 1232 1232 1232 1233 1234 1235 1236 1236 1237 1237 1237 1236 1235 1235 1235 1235 1234 1234 1233 1232 1232 1231 1231 1230 1230 1230 1231 1232 1233
1258 1258 1258 1258 1258 1258 1257 1256 1255 1255 1255 1255 1255 1255 1255 1255 1254 1253 1252 1252 1251 1251 1250 1249 1249 1248 1247 1246 1246 1246 1247 1248 1248 1247 1246 1245 1244 1243 1242 1241 1241 1241 1241 1241 1241 1241 1241 1240 1240 1239 1239 1238 1238 1237 1236 1235 1233 1232 1231 1230 1230 1231 1231 1232 1233 1234 1234 1233 1233 1233 1232 1232 1231 1231 1231 1231 1231 1230 1230 1229 1228 1227 1227 1227 1227 1227 1228
1261 1260 1260 1260 1260 1259 1258 1258 1257 1257 1257 1257 1257 1257 1256 1256 1255 1254 1254 1253 1252 1252 1251 1250 1250 1249 1248 1248 1247 1248 1248 1247 1247 1246 1245 1244 1243 1242 1241 1241 1241 1240 1241 1241 1241 1240 1239 1239 1238 1238 1237 1237 1236 1236 1235 1234 1233 1231 1230 1229 1229 1229 1229 1229 1230 1231 1231 1231 1230 1229 1228 1228 1228 1227 1227 1227 1227 1227 1227 1226 1226 1225 1224 1224 1223 1223 1223
1262 1262 1261 1261 1260 1260 1259 1258 1258 1258 1258 1258 1258 1257 1257 1257 1257 1256 1255 1254 1253 1252 1252 1251 1250 1249 1249 1248 1248 1248 1247 1247 1246 1245 1244 1244 1243 1243 1242 1241 1241 1240 1240 1240 1240 1239 1238 1237 1236 1236 1235 1235 1235 1234 1233 1232 1231 1230 1229 1228 1228 1228 1228 1228 1227 1227 1227 1227 1227 1226 1225 1225 1224 1223 1223 1223 1223 1222 1222 1222 1222 1222 1221 1221 1220 1220 1220